Location: Kaseke
(18.0171°S, 31.0526°E)
Time: 12:13:35
(UTC+00:00)

CZ-4B R/B - Pass Details

Date: 14 July 2020
Orbit: 390 x 465 km, 97.6° (Epoch: 07 August)

Event Time Altitude Azimuth Distance (km) Brightness Sun altitude
Exits shadow 03:32:31 11° 301° (WNW) 1,524 3.7 -13.1°
Drops below altitude 10° 03:32:46 10° 304° (NW) 1,605 3.8 -13.0°
Sets 03:35:07 0° 321° (NW) 2,456 4.9 -12.5°
